EHI
0 0 0 0 0 0 0 0 0 0 0 0 0 0 0 0 0 0 0 0 0 0 0 0 1 3 5 9 11 15 18 18 17 14 8 3 0 0 0 0 0 0 0 0
0 0 0 0 0 0 0 0 0 0 0 0 0 0 0 0 0 0 0 0 0 0 0 0 1 3 6 9 10 13 16 18 17 16 11 5 1 1 1 0 0 0 0 0
0 0 0 0 0 0 0 0 0 0 0 0 0 0 0 0 0 0 0 0 0 0 0 0 0 2 5 7 8 10 13 16 17 18 15 9 4 3 2 1 0 0 0 0
0 0 0 0 0 0 0 0 0 0 0 0 0 0 0 0 0 0 0 0 0 0 0 0 0 1 3 5 6 9 13 15 15 17 17 12 7 4 3 2 1 0 0 0
0 0 0 0 0 0 0 0 0 0 0 0 0 0 0 0 0 0 0 0 0 0 0 0 0 0 1 3 5 8 12 14 14 16 17 14 10 6 3 2 1 0 0 0
0 0 0 0 0 0 0 0 0 0 0 0 0 0 0 0 0 0 0 0 0 0 0 0 0 0 1 2 4 8 12 13 13 15 16 14 11 7 3 1 0 0 0 0
0 0 0 0 0 0 0 0 0 0 0 0 0 0 0 0 0 0 0 0 0 0 0 0 0 0 0 1 3 8 12 12 13 15 14 13 12 8 4 1 0 0 0 0
0 0 0 0 0 0 0 0 0 0 0 0 0 0 0 0 0 0 0 0 0 0 0 0 0 0 0 0 2 6 10 11 11 12 12 10 10 9 6 2 0 0 0 0
0 0 0 0 0 0 0 0 0 0 0 0 0 0 0 0 0 0 0 0 0 0 0 0 0 0 0 0 1 4 7 7 6 7 7 6 5 6 5 2 0 0 0 0
0 0 0 0 0 0 0 0 0 0 0 0 0 0 0 0 0 0 0 0 0 0 0 0 0 0 0 0 1 2 3 2 2 2 3 2 1 2 3 2 1 0 0 0
0 0 0 0 0 0 0 0 0 0 0 0 0 0 0 0 0 0 0 0 0 0 0 0 0 0 0 0 0 1 1 0 0 0 1 1 0 0 1 2 1 0 0 0
0 0 0 0 0 0 0 0 0 0 0 0 0 0 0 0 0 0 0 0 0 0 0 0 0 0 0 0 0 0 0 0 0 0 0 0 0 0 0 1 1 0 0 0
0 0 0 0 0 0 0 0 0 0 0 0 0 0 0 0 0 0 0 0 0 0 0 0 0 0 0 0 0 0 0 0 0 0 0 0 0 0 0 0 0 0 0 0
0 0 0 0 0 0 0 0 0 0 0 0 0 0 0 0 0 0 0 0 0 0 0 0 0 0 0 0 0 0 0 0 0 0 0 0 0 0 0 0 0 0 0 0
0 0 0 0 0 0 0 0 0 0 0 0 0 0 0 0 0 0 0 0 0 0 0 0 0 0 0 0 0 0 0 0 0 0 0 0 0 0 0 0 0 0 0 0
0 0 0 0 0 0 0 0 0 0 0 0 0 0 0 0 0 0 0 0 0 0 0 0 0 0 0 0 0 0 0 0 0 0 0 0 0 0 0 0 0 0 0 0
0 0 0 0 0 0 0 0 0 0 0 0 0 0 0 0 0 0 0 0 0 0 0 0 0 0 0 0 0 0 0 0 0 0 0 0 0 0 0 0 0 0 0 0
0 0 0 0 0 0 0 0 0 0 0 0 0 0 0 0 0 0 0 0 0 0 0 0 0 0 0 0 0 0 0 0 0 0 0 0 0 0 0 0 0 0 0 0
0 0 0 0 0 0 0 0 0 0 0 0 0 0 0 0 0 0 0 0 0 0 0 0 0 0 0 0 0 0 0 0 0 0 0 0 0 0 0 0 0 0 0 0
0 0 0 0 0 0 0 0 0 0 0 0 0 0 0 0 0 0 0 0 0 0 0 0 0 0 0 0 0 0 0 0 0 0 0 0 0 0 0 0 0 0 0 0
0 0 0 0 0 0 0 0 0 0 0 0 0 0 0 0 0 0 0 0 0 0 0 0 0 0 0 0 0 0 0 0 0 0 0 0 0 0 0 0 0 0 0 0
0 0 0 0 0 0 0 0 0 0 0 0 0 0 0 0 0 0 0 0 0 0 0 0 0 0 0 0 0 0 0 0 0 0 0 0 0 0 0 0 0 0 0 0
0 0 0 0 0 0 0 0 0 0 0 0 0 0 0 0 0 0 0 0 0 0 0 0 0 0 0 0 0 0 0 0 0 0 0 0 0 0 0 0 0 0 0 0
0 0 0 0 0 0 0 0 0 0 0 0 0 0 0 0 0 0 0 0 0 0 0 0 0 0 0 0 0 0 0 0 0 0 0 0 0 0 0 0 0 0 0 0
0 0 0 0 0 0 0 0 0 0 0 0 0 0 0 0 0 0 0 0 0 0 0 0 0 0 0 0 0 0 0 0 0 0 0 0 0 0 0 0 0 0 0 0
0 0 0 0 0 0 0 0 0 0 0 0 0 0 0 0 0 0 0 0 0 0 0 0 0 0 0 0 0 0 0 0 0 0 0 0 0 0 0 0 0 0 0 0
Wind_Speed
1 3 1 2 3 2 1 2 2 3 3 3 5 6 6 5 5 6 6 7 8 8 8 7 7 7 7 8 10 11 11 10 9 7 7 6 6 5 5 5 6 7 6 7
4 1 3 3 3 2 1 1 1 1 3 3 4 7 7 8 8 8 10 10 10 9 8 7 7 7 8 9 10 10 11 11 10 8 7 5 5 4 4 5 6 6 6 6
2 2 2 2 2 2 2 2 2 1 1 1 1 4 7 7 8 8 9 10 10 12 12 10 9 9 8 10 11 10 11 10 10 8 5 4 3 2 3 4 4 5 6 6
1 2 0 2 2 2 2 3 3 1 2 1 3 4 6 6 8 10 10 10 11 10 10 10 10 9 10 10 9 10 10 10 9 9 8 9 7 6 6 5 4 4 5 6
2 1 1 0 1 2 2 1 2 1 2 0 2 3 7 4 8 11 12 11 11 11 10 10 10 11 10 8 8 8 9 9 9 9 10 10 7 5 4 4 5 5 4 4
2 1 1 1 1 1 1 3 3 2 2 3 5 5 7 6 10 9 10 11 11 10 10 9 8 7 6 6 6 7 8 8 8 9 9 10 9 8 7 6 6 5 3 3
4 2 1 1 1 2 3 4 2 1 0 5 4 5 9 9 8 11 11 11 10 9 8 8 8 7 7 7 7 7 8 7 8 9 9 9 9 9 9 8 7 6 4 3
2 4 2 1 2 2 1 4 4 3 4 3 3 7 8 7 6 6 7 7 5 5 6 7 8 9 8 8 7 7 8 7 7 8 8 7 7 6 5 6 6 6 4 4
1 3 2 1 1 3 2 2 3 2 1 2 4 5 7 4 4 3 1 2 3 3 4 5 4 5 7 8 7 8 8 6 6 6 6 6 7 6 6 5 5 4 4 4
2 2 3 1 1 0 2 2 2 2 2 2 3 3 4 6 5 3 1 1 2 2 2 2 3 3 4 5 5 6 6 6 5 5 5 5 5 6 6 6 6 5 5 5
1 1 3 1 2 3 2 1 2 2 2 2 2 5 3 5 5 3 2 1 2 3 2 2 2 2 3 3 4 5 5 5 5 5 5 5 5 5 6 6 6 6 5 5
1 1 2 4 3 2 3 3 3 2 3 2 2 6 5 4 3 2 2 1 0 1 1 1 2 3 3 3 4 5 5 5 5 5 6 6 5 6 6 6 5 5 6 5
0 1 2 4 3 1 1 3 4 2 1 2 3 6 4 4 4 3 2 2 1 1 1 1 1 2 2 3 3 4 5 6 5 6 7 6 6 6 6 6 6 6 5 5
2 2 3 4 4 2 3 3 3 3 2 3 5 6 5 4 3 4 3 2 1 1 1 1 1 1 2 3 4 4 5 5 6 6 7 7 6 6 6 6 6 6 5 5
2 1 3 6 6 4 5 5 4 5 5 5 5 5 6 5 4 3 3 2 1 2 2 2 2 3 2 3 3 4 5 5 6 7 6 6 6 6 6 6 6 6 5 5
2 1 2 4 3 3 4 4 4 5 4 5 6 7 6 4 3 3 3 2 2 3 3 3 3 3 4 4 5 5 5 6 6 7 6 6 6 6 6 6 6 5 5 4
1 1 1 4 5 2 3 4 3 2 2 3 5 6 5 5 5 4 4 3 3 3 4 4 4 5 5 5 6 7 6 6 7 7 7 7 7 7 6 6 6 5 5 4
2 0 1 2 3 2 3 1 1 0 1 3 4 5 5 5 4 1 2 3 4 4 4 4 3 4 4 4 4 5 5 7 7 7 7 7 7 7 6 6 6 5 4 4
4 2 0 0 1 4 3 4 4 2 2 5 5 7 7 6 3 3 5 4 4 4 5 4 4 3 2 3 4 5 5 6 7 8 8 8 8 8 7 7 6 4 4 4
2 1 1 0 1 3 3 6 6 1 1 6 7 8 7 6 3 4 6 6 6 6 5 4 3 1 1 2 4 6 6 6 8 8 7 7 8 8 8 7 5 4 4 4
1 0 1 2 3 4 3 8 4 1 3 7 7 7 6 4 3 5 6 5 5 5 5 4 2 2 1 1 3 5 5 7 6 6 6 6 7 7 6 6 4 5 4 4
3 2 2 2 3 4 4 4 3 2 5 6 6 6 6 6 6 5 5 5 5 5 5 4 3 3 2 1 3 3 4 3 4 5 6 6 6 6 6 6 5 5 5 5
3 4 3 4 4 2 1 1 1 3 5 5 6 7 7 6 6 6 4 4 4 5 5 4 3 2 3 2 2 2 2 3 4 5 5 5 6 5 6 6 6 5 5 4
3 1 1 3 3 2 1 1 3 4 5 6 6 7 6 6 6 5 4 3 3 4 4 3 3 3 3 3 2 1 2 3 5 5 5 5 5 5 5 5 5 5 5 5
4 1 1 3 3 3 2 2 5 6 6 7 7 6 6 6 6 5 4 3 3 3 3 2 2 2 2 2 2 2 1 3 4 4 4 4 4 5 5 4 5 6 5 6
4 4 4 4 3 3 5 4 5 6 7 8 8 8 6 5 6 4 3 3 3 3 2 2 2 2 2 2 2 2 1 2 3 3 3 3 3 3 3 3 3 6 7 10
Wind_Direction
37 79 134 200 202 172 167 172 182 215 202 182 210 235 253 254 248 238 248 248 247 242 245 240 218 194 183 180 180 182 180 180 174 172 173 173 177 175 173 176 177 177 175 173
48 6 230 205 200 198 190 166 208 255 209 194 225 243 236 230 230 226 225 232 233 236 234 228 226 203 189 184 183 185 184 181 179 180 179 173 166 171 176 174 176 178 176 175
144 252 238 185 169 178 212 181 186 212 251 227 209 272 240 234 225 229 227 224 223 220 220 215 215 211 196 190 186 186 188 186 183 179 161 138 124 128 160 177 180 184 178 176
306 288 179 153 190 184 227 215 203 189 133 236 181 251 259 233 236 232 230 228 228 222 216 210 208 208 202 200 191 183 183 184 182 175 172 170 175 183 189 181 177 175 174 172
296 305 33 134 249 180 202 182 170 172 156 234 204 222 270 240 234 235 231 227 227 222 212 209 207 203 201 195 189 184 177 180 179 177 178 180 184 186 165 157 163 171 167 166
260 248 216 224 308 151 114 64 64 62 99 234 206 200 265 225 219 227 229 226 225 221 215 211 207 197 194 189 186 180 175 178 178 177 179 182 183 174 162 169 174 171 162 159
346 330 299 113 55 27 76 92 69 35 202 243 198 204 250 244 232 223 226 228 225 218 210 205 197 191 187 183 182 178 176 178 178 178 180 184 184 181 179 180 179 171 170 176
350 308 258 193 177 173 172 141 159 181 205 264 208 226 254 264 261 244 233 223 216 210 206 202 197 190 187 185 179 174 174 174 175 175 178 178 178 178 182 178 171 172 174 173
218 282 289 220 186 152 156 192 195 150 201 254 250 271 300 324 335 328 267 174 183 195 194 195 191 186 184 182 180 175 171 167 170 172 165 164 164 161 161 157 152 152 153 150
186 281 299 297 77 359 166 164 126 145 178 235 266 268 275 304 306 324 345 180 179 145 149 170 179 182 179 175 169 163 161 160 157 156 157 156 156 155 153 148 153 152 148 142
158 216 307 349 208 205 167 198 194 179 192 192 243 265 265 278 285 301 292 245 181 150 157 169 166 153 142 140 146 149 152 147 146 147 141 138 140 139 138 142 148 147 140 142
228 156 270 259 263 210 190 204 180 187 231 208 216 270 300 310 311 328 326 336 124 139 141 143 141 136 135 140 149 152 150 145 145 140 133 132 131 130 130 130 131 131 129 129
126 94 343 338 339 357 243 231 208 198 206 208 216 268 313 341 357 354 357 348 3 88 95 91 109 140 154 154 153 157 157 152 143 136 132 129 128 129 130 128 122 117 116 113
88 148 192 221 245 263 265 264 230 188 213 233 233 266 305 325 336 334 332 323 321 302 239 193 192 197 186 174 164 160 160 154 146 141 140 139 140 136 130 125 121 117 117 115
66 223 255 261 262 254 255 260 241 224 223 228 259 272 280 288 293 304 308 304 304 297 276 234 218 216 203 189 180 169 165 158 150 146 146 148 138 131 126 124 123 119 118 120
34 326 309 300 283 262 279 283 260 251 239 239 267 283 291 304 323 326 315 300 285 280 271 249 229 213 207 199 191 182 175 167 154 153 154 146 139 137 135 134 130 124 122 122
351 18 349 296 309 353 303 297 266 251 253 236 251 271 309 327 329 317 320 318 299 295 283 262 242 226 217 208 194 189 183 166 157 158 155 152 149 147 147 144 139 140 141 139
174 155 215 298 357 266 246 330 308 208 11 353 328 325 328 308 283 316 354 336 315 313 303 290 274 252 233 213 195 180 166 163 163 162 161 159 155 154 151 149 153 152 147 150
180 170 223 323 299 278 316 347 342 302 341 5 343 334 334 331 337 338 356 348 325 313 301 286 274 261 237 209 187 162 164 165 166 172 172 169 164 160 160 165 166 159 152 155
135 143 148 207 255 250 293 313 312 252 296 356 351 341 336 348 342 307 333 335 331 330 323 315 311 310 244 212 166 159 169 172 184 184 177 169 165 166 172 173 164 156 155 163
40 33 189 221 244 263 301 314 339 94 309 332 333 334 336 330 291 296 318 329 330 331 335 344 355 357 313 212 155 166 174 191 190 168 158 162 168 169 168 164 159 155 155 159
187 187 216 200 225 258 332 8 37 308 307 317 322 322 322 315 315 317 322 330 339 345 347 355 6 3 0 58 141 164 190 186 150 149 157 164 164 164 162 160 162 161 162 170
202 195 203 206 224 264 3 46 300 311 312 317 318 317 316 315 316 318 321 330 337 343 344 351 6 9 10 24 104 153 178 143 143 148 159 161 161 163 163 166 168 169 176 185
275 216 210 258 260 276 290 278 337 334 318 315 316 316 317 311 310 314 315 322 331 340 341 348 9 16 7 10 36 98 139 143 146 156 162 163 166 169 171 173 176 182 189 196
236 210 219 258 279 310 280 324 327 324 320 319 321 313 310 308 304 302 305 312 321 330 336 354 7 5 357 10 26 38 100 134 142 152 161 168 174 176 180 187 194 199 205 202
206 183 188 229 237 249 276 298 318 319 318 318 318 317 313 305 300 304 304 307 316 325 339 357 4 6 6 24 27 23 58 131 146 157 171 177 180 182 183 191 213 223 221 227